Regional Weather Roundup
Issued by NWS Newport/Morehead, NC

Current Version | Previous Version | Text Only | Print | Product List | Glossary On
Versions: 1 2 3 4 5 6 7 8 9 10 11 12 13 14 15 16 17 18 19 20 21 22 23 24 25 26 27 28 29 30 31 32 33 34 35 36 37 38 39 40 41 42 43 44 45 46 47 48 49 50
000
ASUS42 KMHX 251210
RWRMHX
WEATHER ROUNDUP FOR EASTERN NORTH CAROLINA
NATIONAL WEATHER SERVICE NEWPORT/MOREHEAD CITY NC
800 AM EDT SAT OCT 25 2014

NOTE: "FAIR" INDICATES FEW OR NO CLOUDS BELOW 12,000 FEET
WITH NO SIGNIFICANT WEATHER AND/OR OBSTRUCTIONS TO VISIBILITY

NCZ015>017-031-032-045>047-102-103-251300-
NORTH COAST

CITY           SKY/WX    TMP DP  RH WIND       PRES   REMARKS
EDENTON        CLEAR     43  42  97 CALM      29.99S
ELIZABETH CITY CLEAR     47  43  86 CALM      29.99R
KITTY HAWK     SUNNY     54  52  94 W3        29.96R
MANTEO         CLEAR     48  47  97 NW5       29.98R FOG

$$

NCZ045>047-081-094-103-104-251300-
CENTRAL COAST

CITY           SKY/WX    TMP DP  RH WIND       PRES   REMARKS
FRISCO         CLEAR     57  53  86 N3        29.97R
SWANQUARTER      N/A     50 N/A N/A VRB2      29.94S

$$

NCZ095-097-098-100-101-251300-
SOUTHERN COAST

CITY           SKY/WX    TMP DP  RH WIND       PRES   REMARKS
BEAUFORT       CLEAR     55  53  93 NW7       29.99R
CEDAR ISLAND     N/A     61 N/A N/A NW13      30.00S
JACKSONVILLE   CLEAR     45  45 100 W3        30.00R FOG
PINEY ISLAND   SUNNY     60  52  74 N6        29.98R HAZE
WILMINGTON     CLEAR     45  44  97 CALM      30.00R


$$

NCZ011>013-027>030-043-044-078>080-089-090>093-098-251300-
COASTAL PLAIN

CITY           SKY/WX    TMP DP  RH WIND       PRES   REMARKS
AHOSKIE        CLEAR     38  37  97 CALM      30.00R
CLINTON        CLEAR     42  42 100 CALM      30.01S FOG
ELIZABETHTOWN  CLEAR     47  46  95 CALM      30.01R
GOLDSBORO      CLEAR     45  45 100 W3        29.99S FOG
GREENVILLE     SNOW      43  41  93 CALM      30.02S VSB 1/4
HAVELOCK       CLEAR     46  44  93 W5        30.00R
KENANSVILLE    CLEAR     40  40 100 CALM      30.01S
KINSTON        CLEAR     41  41 100 CALM      30.01R FOG
NEW BERN       CLEAR     47  44  90 CALM      30.01R FOG
RICHLANDS      CLEAR     41  37  87 CALM      30.01R
ROCKY MOUNT    FOG       42  41  96 CALM      30.01R VSB 1/4
WASHINGTON     CLEAR     43  41  95 CALM      30.00R
WHITEVILLE     CLEAR     45  44  95 CALM      30.00R

$$

AMZ130-135-150-152-154-156-158-170-250-252-270-ANZ085-086-088-633-658-670-251300-
MARINE OBSERVATIONS

STATION/POSITION TIME  TEMP    WIND        PRES    WAVE   SWELL
                       AIR SEA DIR/SP/G            HT/PER HT/PER
                 (UTC) (F)     (DEG/KT/KT) (MB)    (FT/S) (FT/S)
CHESAPEAKE LIGHT 1100   60     350/ 18/ 19 1014.8
64 E VA BEACH    1200   62 66  340/ 12/ 16 1013.4    3/10   2/10
DUCK             1200   56 65  310/  6/  9 1014.1
2 E DUCK         1200                        N/A     3/10
10 NE DUCK       1200      67                N/A     3/11   2/11
OREGON INLET     1200   57 64  300/  3/  4 1014.7
13E OREGON INLT  1200      69                N/A     4/10   2/11
HATTERAS CG      1200   61 65  340/  9/ 12 1015.1
DIAMOND BUOY     1200   65     340/ 12/ 16 1014.6    3/ 9   3/ 9
17 S OCRACOKE    1100          VRB 10/ 12  1014.4
CAPE LOOKOUT     1100   60     350/  6/  6 1014.7
BEAUFORT LAB     1200   57 66  340/  4/  6 1014.5
30 SE NEW RIVER  1200   67 74  330/  6/  8 1014.7    2/ 9   2/ 9
5 SE WRIGHTSVLE  1200   59 71  320/ 10/ 10   N/A
225 S CAPE HAT   1144   71 77  350/ 10/ 12 1013.5    3/ 9   3/ 9
41 SE CHARLESTON 1200   69 78   10/  6/  8 1015.1    3/10   3/10

$$



USA.gov is the U.S. government's official web portal to all federal, state and local government web resources and services.